DEBJR EDDG-EDDG

Flight info

Callsign DEBJR
Flight time 0h 10m
Altitude
Route
Aircraft SR22

Departure

Time 2026-04-29 18:07
Airport Münster Osnabrück Airport (EDDG)

Arrival

Time 2026-04-29 18:18
Airport Münster Osnabrück Airport (EDDG)
Time Latitude Longitude Altitude Speed Heading
2026-04-29 17:59 52.13153 7.68307 155 ft 0 kts 272°
2026-04-29 18:04 52.13154 7.68296 154 ft 0 kts 289°
2026-04-29 18:04 52.13160 7.68278 154 ft 0 kts 12°
2026-04-29 18:04 52.13177 7.68277 154 ft 3 kts
2026-04-29 18:04 52.13195 7.68318 154 ft 6 kts 79°
2026-04-29 18:05 52.13228 7.68339 154 ft 7 kts 340°
2026-04-29 18:05 52.13290 7.68303 154 ft 12 kts 339°
2026-04-29 18:05 52.13326 7.68280 154 ft 0 kts
2026-04-29 18:06 52.13349 7.68267 154 ft 9 kts 336°
2026-04-29 18:06 52.13423 7.68291 154 ft 12 kts 67°
2026-04-29 18:07 52.13513 7.68707 158 ft 67 kts 71°
2026-04-29 18:07 52.13678 7.69500 457 ft 73 kts 72°
2026-04-29 18:07 52.13838 7.70226 826 ft 67 kts 65°
2026-04-29 18:07 52.14066 7.70925 1063 ft 80 kts 68°
2026-04-29 18:08 52.14595 7.71217 1300 ft 99 kts 357°
2026-04-29 18:08 52.15315 7.70772 1473 ft 115 kts 351°
2026-04-29 18:08 52.16013 7.70228 1564 ft 117 kts 323°
2026-04-29 18:08 52.16136 7.68975 1606 ft 121 kts 258°
2026-04-29 18:09 52.15919 7.67630 1600 ft 122 kts 257°
2026-04-29 18:09 52.15684 7.66328 1614 ft 120 kts 257°
2026-04-29 18:09 52.15457 7.65008 1613 ft 120 kts 248°
2026-04-29 18:09 52.15244 7.63671 1507 ft 124 kts 262°
2026-04-29 18:10 52.15070 7.62328 1346 ft 118 kts 263°
2026-04-29 18:10 52.14632 7.61341 1147 ft 106 kts 185°
2026-04-29 18:10 52.13990 7.61599 1000 ft 88 kts 153°
2026-04-29 18:10 52.13450 7.61849 930 ft 81 kts 156°
2026-04-29 18:11 52.12823 7.62142 982 ft 100 kts 149°
2026-04-29 18:11 52.12433 7.62917 1054 ft 92 kts 103°
2026-04-29 18:11 52.12460 7.63813 858 ft 71 kts 77°
2026-04-29 18:11 52.12640 7.64600 690 ft 77 kts 81°
2026-04-29 18:12 52.12824 7.65425 535 ft 77 kts 80°
2026-04-29 18:12 52.12989 7.66257 363 ft 77 kts 76°
2026-04-29 18:12 52.13166 7.67071 190 ft 75 kts 76°
2026-04-29 18:12 52.13318 7.67794 157 ft 69 kts 68°
2026-04-29 18:13 52.13499 7.68656 404 ft 82 kts 74°
2026-04-29 18:13 52.13659 7.69516 742 ft 82 kts 71°
2026-04-29 18:13 52.13925 7.70322 1060 ft 90 kts 50°
2026-04-29 18:13 52.14564 7.70502 1393 ft 100 kts
2026-04-29 18:14 52.15263 7.69976 1569 ft 116 kts 346°
2026-04-29 18:14 52.15876 7.69092 1787 ft 139 kts 303°
2026-04-29 18:14 52.15907 7.67452 1947 ft 152 kts 256°
2026-04-29 18:14 52.15628 7.65805 2107 ft 154 kts 252°
2026-04-29 18:15 52.15333 7.64080 2113 ft 159 kts 257°
2026-04-29 18:15 52.15062 7.62347 1728 ft 157 kts 261°
2026-04-29 18:15 52.14625 7.60848 1421 ft 136 kts 205°
2026-04-29 18:15 52.13804 7.60860 1173 ft 109 kts 156°
2026-04-29 18:16 52.13162 7.61144 1180 ft 93 kts 151°
2026-04-29 18:16 52.12585 7.61509 1074 ft 79 kts 131°
2026-04-29 18:16 52.12447 7.62325 967 ft 83 kts 86°
2026-04-29 18:16 52.12582 7.63295 888 ft 81 kts 73°
2026-04-29 18:17 52.12770 7.64048 701 ft 69 kts 75°
2026-04-29 18:17 52.12857 7.64815 510 ft 73 kts 76°
2026-04-29 18:17 52.13047 7.65582 402 ft 72 kts 65°
2026-04-29 18:17 52.13190 7.66361 303 ft 74 kts 76°
2026-04-29 18:18 52.13390 7.67156 175 ft 77 kts 73°
2026-04-29 18:18 52.13532 7.67809 159 ft 34 kts 72°
2026-04-29 18:18 52.13545 7.67880 159 ft 0 kts 77°